COSMOS 2251 DEB, 34021

Orbit data source: Space-Track

COSMOS 2251 DEB, 34021 is space debris in LEO originally from a launch on Wed, 16 Jun 1993 UTC launched from the Plesetsk Missile And Space Complex (PKMTR). The debris from Iridium 33, an American commercial communications satellite, has been tracked extensively since its accidental collision with the defunct Russian satellite Cosmos 2251 in 2009. This event, occurring at high speed in low Earth orbit (LEO), generated thousands of pieces of space debris, significantly increasing the risk of further collisions. The Iridium 33 debris cloud has impacted space traffic management and orbital debris mitigation strategies, making it a subject of ongoing study in space situational awareness.

Loading next visibility...
Identifier
34021, 1993-036HG
Orbit
LEO
Country
Flag of CISCIS
Related business
Manufacturer
Unknown
Mission
Spacecraft
Bus & Motor
Unknown
Mass
Unknown
Launch date (UTC)
1993-06-16 (33 years ago)
Launch vehicle
Unknown
Launch site
Plesetsk Missile And Space Complex (PKMTR)
Object type
Payload
Rocket body
Debris
Shape & HBR
Unknown shape, 0.2 m
Radar Cross Section
Medium (>0.1 m² and <1 m²)

Expand to show TLE details & history
Last TLE update: 8 hours ago

TLE from 8 hours ago
0 COSMOS 2251 DEB
1 34021U 93036HG  26263.17229441  .00000506  00000-0  13569-3 0  9998
2 34021  74.0366 321.0236 0019439  29.5838   1.5655 14.50682468927101
Epoch: 2026-09-20T04:08Z
TLE epoch observation values (Epoch: 2026-09-20T04:08:06.237Z)
Latitude
29.88699°
Longitude
-90.66146°
Altitude
713.054 km
Speed
7.509 km/s
True Right ascension
22h 01m 44s
True Declination
29° 44' 16"
Sunlit
Object was in full shadow at epoch
Visualization orbit readout
Latitude
Unknown
Longitude
Unknown
Altitude
Unknown
Speed
Unknown
Apparent Right ascension
Unknown
Apparent Declination
Unknown
Sunlit
N/A
Visualization observer readout
Local Sidereal Time
05:32:02
Azimuth
Unknown
Elevation
Unknown
Doppler factor
Unknown
Orbital elements
Apogee altitude
734.828 km
Perigee altitude
707.228 km
Semi-major axis
7,099.165 km
Eccentricity
0.00194
Inclination
74.0366°
RAAN
321.0236°
Arg. of periapsis
29.5838°
True anomaly
1.5716°
Mean anomaly
1.5655°
Eccentric anomaly
1.56855°
Mean motion
3.62854 °/min
Orbital period
99.21 mins
BSTAR
0.00013569
Loading maneuver chart data...
Computing Atmospheric mass density...

Documentation

Showing up to 5 results
|